GFSFLT1_850_spd_000.txt.gz
Wind_Speed
14 12 13 13 11 11 14 11 6 8 6 4 5 6 7 10 12 14 17 18 18 19 21 24 25 21 23 23 24 24 25 25
9 12 12 11 9 11 11 9 11 11 7 6 7 8 9 8 9 17 20 21 26 29 30 26 26 23 25 30 27 28 28 27
8 6 7 8 7 9 11 11 12 13 8 11 11 9 8 12 13 21 24 29 29 26 24 24 23 24 23 24 26 28 29 28
12 11 10 8 8 8 7 9 9 7 4 6 7 9 11 11 18 21 27 28 29 27 26 27 28 25 24 24 25 27 32 31
8 7 6 5 5 5 4 1 2 5 11 13 19 13 15 21 20 19 28 30 31 32 33 33 32 30 24 24 24 26 28 34
8 7 7 7 6 6 6 7 9 15 18 23 19 19 16 15 18 22 23 22 28 32 34 34 33 31 25 29 26 21 22 27
8 8 8 9 8 7 10 10 13 18 21 26 24 21 21 22 22 24 23 25 25 24 31 29 27 23 17 15 14 12 9 7
6 6 5 5 6 11 15 22 14 25 34 32 30 27 20 21 23 24 28 26 25 24 28 16 14 11 9 7 8 7 8 10
6 4 5 6 11 17 21 18 13 21 23 19 20 18 19 22 24 28 30 28 26 26 15 12 12 11 11 10 9 6 7 8
5 7 8 8 8 11 18 22 23 21 19 16 20 20 23 29 33 31 24 24 19 15 13 11 8 5 5 6 8 13 10 10
8 11 11 11 12 15 21 22 15 14 14 16 18 24 26 28 24 22 20 16 14 12 9 8 8 9 10 14 22 18 12 14
14 17 17 16 13 11 12 13 13 12 14 18 20 20 18 19 19 17 15 14 13 11 11 11 12 15 24 24 14 11 12 11
16 17 16 14 9 10 11 11 12 16 21 20 18 17 16 17 18 16 14 13 12 11 13 18 23 18 14 14 14 15 15 16
18 18 16 13 12 12 17 19 19 20 23 17 15 15 18 17 17 17 15 16 17 17 19 18 16 17 18 16 15 16 19 20
17 16 14 12 20 21 18 16 19 26 23 16 16 16 15 18 19 17 17 16 16 17 20 20 19 19 18 18 18 21 21 19
18 17 15 20 16 14 13 15 22 25 15 17 12 10 11 14 16 15 16 17 17 17 18 17 18 18 18 20 18 18 19 20
18 18 15 15 15 18 14 16 18 17 14 10 8 11 13 14 15 17 18 18 17 17 18 18 18 17 20 22 22 19 20 22
20 16 18 18 20 17 18 19 14 11 12 8 10 12 14 15 17 18 18 18 18 19 18 17 17 17 23 26 27 25 23 24
18 18 21 23 21 20 20 18 14 13 13 12 12 13 14 16 18 18 18 19 20 19 19 18 20 20 26 28 27 25 22 23

GFSFLT1_850_spd_003.txt.gz
Wind_Speed
15 12 11 10 10 10 12 12 9 7 6 5 5 6 6 8 9 8 9 10 10 13 16 18 20 22 24 26 27 29 30 31
10 8 6 5 6 7 11 11 10 6 6 6 7 8 9 8 9 10 11 11 17 16 17 19 20 22 24 26 28 29 29 29
6 6 5 3 4 6 8 5 4 4 4 4 5 6 6 9 8 13 13 16 22 22 23 19 19 21 23 25 26 28 29 29
11 12 11 10 8 7 7 6 5 4 4 2 5 7 9 12 15 16 18 22 23 19 19 19 20 20 23 24 25 27 30 31
9 10 10 10 11 11 9 7 5 6 3 5 10 10 12 14 17 20 24 21 21 20 20 20 19 20 23 24 24 27 28 32
8 9 9 9 9 9 7 4 5 6 6 8 12 16 21 30 30 22 21 19 19 20 21 22 24 23 22 21 21 19 21 22
7 7 7 6 6 5 6 5 5 8 11 15 25 42 34 18 19 19 18 20 20 20 22 21 21 20 19 19 19 18 17 16
3 3 2 2 3 5 8 10 12 14 17 19 16 13 15 17 19 19 22 22 22 22 22 20 20 19 20 20 20 21 18 14
4 2 3 6 8 11 13 13 15 16 14 14 15 16 17 17 18 20 21 21 23 22 23 21 22 20 21 19 14 15 17 20
2 4 6 12 13 14 14 14 15 14 14 16 15 15 16 17 17 18 21 23 24 24 24 24 21 17 16 15 16 16 17 20
7 12 14 16 18 18 14 14 15 15 16 14 13 16 18 18 19 22 24 24 24 23 22 20 18 18 20 21 22 23 21 18
15 16 16 17 19 18 16 17 13 13 14 15 18 16 17 18 20 21 20 21 21 22 25 22 21 24 27 23 17 19 19 18
16 18 16 19 19 21 19 13 14 16 13 15 17 17 18 19 19 20 19 18 18 20 23 26 24 20 19 20 20 18 19 19
18 19 24 27 21 15 17 19 17 13 13 15 17 17 18 16 17 18 18 18 20 20 22 22 23 23 23 22 21 22 20 21
19 20 24 21 19 20 18 18 17 17 16 16 18 17 14 15 16 17 18 19 21 21 21 21 20 21 22 22 18 19 23 24
18 24 23 20 18 18 19 17 19 19 19 19 19 15 14 16 17 18 19 20 20 19 20 20 21 21 22 21 23 23 22 24
21 25 23 21 20 21 22 19 20 21 20 21 19 17 16 17 17 18 20 20 20 20 22 22 21 21 24 28 30 31 27 26
26 20 20 22 22 24 24 23 23 20 22 22 20 18 17 17 17 19 20 21 21 22 22 21 21 21 26 30 34 35 27 26
19 21 22 24 26 26 26 25 27 25 24 23 21 17 19 17 18 20 21 22 22 22 22 20 21 23 27 33 36 32 25 25

GFSFLT1_850_spd_009.txt.gz
Wind_Speed
21 17 16 12 11 15 13 22 18 15 11 10 7 8 5 7 5 5 8 9 10 14 20 25 33 27 27 29 29 28 30 30
21 20 16 11 12 17 20 18 11 16 16 14 11 12 6 6 5 8 12 15 20 31 29 29 28 22 22 24 28 29 27 28
22 20 24 27 24 21 22 22 17 12 11 11 9 6 4 9 12 12 15 24 24 24 23 23 20 22 27 30 31 30 32 29
16 15 16 18 17 14 12 10 8 5 2 2 5 8 9 13 16 21 26 21 19 16 16 17 19 24 28 30 32 33 32 32
16 12 10 11 14 11 8 8 8 5 8 13 13 12 16 17 19 15 11 19 17 15 17 20 25 29 29 31 30 29 26 27
16 10 8 8 7 8 9 10 16 18 19 13 14 12 14 9 10 13 14 14 15 19 25 31 29 28 27 27 28 27 28 26
7 6 6 8 12 12 10 7 8 12 16 11 13 9 8 11 15 17 18 20 25 30 26 25 21 22 21 22 25 27 29 29
14 11 6 4 7 8 7 11 15 16 12 12 13 15 15 16 15 18 23 27 21 23 23 20 21 25 23 22 22 21 20 23
6 6 7 6 7 6 7 11 14 10 12 16 16 16 15 15 17 27 18 19 19 18 20 25 31 29 27 27 27 25 25 27
8 12 8 4 6 10 11 11 12 13 14 15 15 15 19 24 20 15 18 19 18 23 30 27 27 25 25 24 27 27 26 23
10 8 5 7 10 14 17 18 17 14 16 19 24 26 19 10 14 17 18 22 25 30 28 25 27 27 26 24 23 22 23 20
10 9 12 13 16 19 21 23 23 25 27 30 30 26 20 19 24 26 27 29 28 23 21 21 22 23 23 25 25 24 23 22
11 11 12 17 22 26 28 20 21 26 27 32 28 25 23 27 32 26 24 22 17 16 19 24 24 23 23 22 22 23 23 20
10 14 22 21 24 26 20 21 26 26 29 28 29 26 23 31 30 19 17 16 20 20 17 19 22 24 26 26 25 26 24 26
15 20 19 21 18 18 19 20 24 27 32 33 36 36 26 25 15 13 13 17 19 19 17 19 25 25 27 25 27 29 33 34
15 21 18 18 16 16 20 24 23 28 29 32 36 31 25 19 29 15 16 20 15 15 19 22 23 23 26 27 29 32 34 39
19 16 17 18 18 22 23 20 22 29 34 37 37 27 26 30 27 16 13 14 13 17 21 20 19 22 27 30 32 34 39 34
15 17 18 16 20 16 18 23 29 34 31 32 27 34 37 31 16 15 20 19 13 18 17 18 21 28 25 27 35 33 30 30
16 16 16 18 17 19 23 29 34 34 31 30 33 32 35 22 14 14 17 13 15 16 16 21 25 24 29 30 28 30 31 30

GFSFLT1_850_spd_012.txt.gz
Wind_Speed
14 9 10 23 31 25 18 12 10 11 16 12 13 11 12 9 5 2 4 7 12 16 20 29 35 28 28 35 28 26 29 31
24 23 20 21 22 14 13 16 15 17 11 16 12 9 4 1 3 5 10 20 17 24 31 35 30 27 24 23 27 31 33 34
30 27 25 22 21 18 9 13 13 13 10 4 5 1 1 4 9 15 18 23 28 28 22 20 19 19 21 24 29 33 35 36
28 26 22 18 16 15 12 9 6 3 3 2 3 8 12 13 17 21 23 22 21 21 16 17 19 23 28 30 30 31 33 33
24 22 19 17 14 10 9 9 6 1 5 11 15 16 16 18 20 18 16 20 16 17 20 24 27 31 32 30 29 28 27 28
19 15 14 14 11 9 8 8 9 9 12 15 15 17 19 18 16 17 14 14 17 20 29 30 26 24 24 24 24 23 21 21
13 12 11 11 10 8 7 7 10 12 13 13 14 16 15 13 12 13 16 20 23 26 27 27 23 22 24 28 25 23 21 24
9 7 6 6 6 5 4 6 9 10 12 13 13 12 11 13 14 18 22 26 27 20 24 21 23 29 26 24 25 25 26 25
12 11 10 9 9 7 7 9 11 14 13 10 10 13 20 25 25 32 32 23 20 19 20 25 26 22 20 21 20 16 20 20
23 15 7 3 4 8 11 13 14 15 16 18 22 28 29 31 29 29 26 24 23 21 26 26 25 23 21 21 23 22 19 18
15 11 9 9 11 12 14 16 14 15 17 23 25 31 31 35 32 28 27 28 27 26 21 25 22 20 20 17 20 18 19 23
14 11 10 10 13 16 15 12 15 19 22 25 28 30 33 34 31 28 32 30 27 23 22 19 20 20 20 20 20 21 21 23
9 9 10 14 15 15 13 15 17 18 19 22 25 28 30 33 28 28 23 20 13 14 23 21 19 19 23 24 23 25 24 25
7 11 14 15 10 10 13 14 17 19 23 25 23 26 28 29 29 27 24 18 25 16 18 18 17 21 23 24 25 24 24 27
11 15 10 8 8 13 14 15 19 22 24 27 33 36 33 23 27 30 28 34 18 10 14 15 20 21 23 24 23 25 27 30
11 8 7 7 10 11 16 16 17 22 27 32 32 34 31 32 32 30 23 15 12 8 12 20 19 22 20 24 26 27 31 34
4 5 7 4 9 12 13 18 22 26 30 31 32 32 31 35 32 26 16 15 10 16 16 18 20 18 23 23 28 31 29 28
4 6 4 9 10 14 18 22 26 25 25 30 31 28 33 37 29 24 21 17 12 13 15 16 18 21 23 26 27 28 29 29
6 5 10 10 14 17 19 24 23 25 27 29 29 31 33 30 23 23 23 7 10 15 12 17 19 23 26 29 30 29 29 29

GFSFLT1_850_spd_015.txt.gz
Wind_Speed
12 16 16 26 37 34 25 19 9 7 8 10 12 10 4 4 3 4 7 8 12 18 21 25 28 31 31 30 27 26 28 31
13 12 13 20 25 26 16 10 15 8 6 9 7 3 1 3 3 5 13 23 25 25 26 26 32 31 26 27 28 30 31 33
18 15 12 13 13 8 5 10 5 4 6 6 5 4 4 9 14 16 18 21 25 20 26 28 25 21 22 25 29 32 33 30
22 18 13 11 12 10 10 9 4 1 4 4 6 9 10 16 21 23 25 23 20 23 20 19 19 22 24 29 28 28 29 29
21 20 20 18 16 13 9 7 5 5 5 8 12 11 16 18 20 20 19 20 19 16 15 18 30 31 29 27 28 29 31 29
21 21 18 16 14 10 7 4 2 1 7 12 14 13 16 16 13 13 15 16 18 21 28 34 25 26 28 29 31 30 25 25
22 18 16 14 11 8 7 2 3 7 11 12 13 14 13 10 11 15 21 28 32 32 21 23 26 26 26 28 23 22 22 21
21 18 13 11 9 7 5 1 6 10 10 10 10 11 14 18 20 22 24 27 26 25 22 23 21 25 22 20 18 19 19 19
18 16 12 10 10 6 3 6 9 11 11 12 14 17 21 22 23 26 28 29 29 24 22 21 19 21 18 17 19 19 20 17
16 15 11 8 5 4 8 11 11 10 12 15 18 22 23 22 23 27 29 29 24 19 20 19 22 19 18 16 17 18 18 20
17 13 9 4 3 8 11 10 11 13 15 18 18 19 21 22 25 28 29 25 21 18 21 15 16 19 17 18 19 19 23 24
15 10 3 4 8 9 7 6 7 12 14 17 21 20 19 24 26 28 23 18 21 31 27 19 15 19 18 18 21 23 23 24
11 5 1 5 6 3 4 8 12 13 17 22 21 23 28 28 26 23 22 26 28 31 28 24 16 17 17 20 22 24 26 24
7 2 1 1 1 3 6 10 13 16 17 20 26 31 27 24 24 30 29 27 27 25 24 20 13 15 19 22 24 26 24 26
2 3 1 2 3 6 8 12 12 15 21 27 31 28 27 26 28 33 29 24 23 18 16 13 12 20 21 22 22 24 26 28
2 2 2 3 6 8 12 11 16 21 26 29 27 27 28 29 31 33 24 19 19 19 17 14 18 19 20 19 24 26 30 31
2 4 7 8 9 11 11 16 20 24 28 26 25 27 28 28 31 29 21 19 21 19 17 16 15 16 19 24 27 28 28 29
4 7 8 9 9 10 14 18 23 22 23 22 22 22 27 28 32 22 19 15 12 8 12 15 13 21 23 25 27 26 27 28
7 8 8 8 9 11 16 21 22 21 22 19 22 26 28 30 26 17 15 14 14 12 10 13 20 20 24 25 26 25 27 28

GFSFLT1_850_spd_018.txt.gz
Wind_Speed
12 16 19 22 26 26 24 20 15 16 6 10 4 4 5 0 6 6 7 10 16 21 25 20 17 20 27 26 24 25 27 29
8 9 11 14 16 20 19 15 12 7 6 9 13 3 9 6 4 9 16 19 18 21 24 20 23 29 29 25 25 30 33 34
13 12 8 7 7 8 6 7 7 7 7 2 5 5 6 9 13 16 18 19 20 23 22 25 27 26 24 27 32 28 28 29
23 19 17 18 18 18 18 15 12 10 9 7 7 9 9 13 17 20 21 20 20 21 21 23 25 30 33 27 27 29 30 28
21 23 23 20 18 16 15 12 9 7 5 5 8 11 13 16 18 18 17 17 20 23 28 32 32 24 24 27 28 29 27 23
24 25 19 18 15 12 10 7 3 0 3 6 9 11 12 14 13 15 18 21 22 26 24 24 27 25 23 25 26 22 21 20
20 20 20 18 15 10 8 5 1 2 5 6 9 10 10 11 14 15 18 21 24 26 26 24 20 17 21 21 20 18 19 20
20 19 16 14 12 9 6 3 2 3 4 8 10 12 14 16 16 18 22 24 25 23 23 25 24 17 16 18 18 19 19 20
17 15 14 12 11 10 6 1 5 7 8 10 12 13 14 14 15 18 22 25 26 28 23 22 24 21 20 21 19 17 19 17
19 18 17 15 12 6 2 5 5 7 9 11 12 16 17 16 18 22 25 28 27 22 18 24 31 28 22 12 16 17 17 17
22 20 16 10 5 3 6 13 9 12 14 15 18 21 18 19 25 29 27 24 24 23 26 26 28 23 14 16 16 17 19 20
23 18 12 7 2 6 14 11 9 12 15 16 17 18 23 28 25 22 22 25 22 24 26 28 27 25 16 15 16 21 22 23
19 14 9 6 9 11 7 6 8 11 14 15 17 22 25 20 20 25 25 29 23 21 23 24 22 22 16 15 18 22 24 25
15 10 8 6 5 6 5 7 10 13 13 16 21 24 21 21 24 27 30 30 23 18 20 18 19 14 12 16 22 22 24 26
12 10 9 8 7 7 8 9 11 11 16 20 23 22 21 24 25 26 31 27 21 16 20 20 18 15 17 21 19 21 25 30
11 9 7 6 9 11 9 10 11 15 19 23 21 20 20 22 24 27 31 23 20 19 21 17 15 18 20 15 20 25 31 33
10 9 8 11 10 10 10 11 14 19 22 21 21 21 19 23 25 31 26 20 20 18 15 18 14 16 12 22 25 30 31 30
12 10 10 9 9 10 11 13 18 21 21 20 20 19 22 24 28 25 22 20 18 18 15 13 11 13 22 22 28 27 26 28
12 10 9 10 10 11 13 16 20 21 19 21 19 20 23 28 26 22 21 20 20 15 14 9 15 20 21 26 25 24 26 27

GFSFLT1_850_spd_021.txt.gz
Wind_Speed
11 14 16 13 17 17 20 16 10 7 15 4 8 4 6 3 6 3 3 7 15 20 20 20 20 18 22 22 23 27 29 31
10 8 8 10 8 12 16 15 11 10 3 6 10 5 3 0 2 6 9 14 16 16 15 15 16 19 23 26 29 31 27 28
10 9 8 7 9 10 12 4 11 13 11 10 4 5 3 3 6 10 15 17 16 15 16 18 22 27 29 24 21 23 24 26
19 18 17 18 16 15 17 16 15 13 10 8 4 2 5 8 11 13 15 14 14 16 20 22 22 21 21 23 22 24 24 22
24 25 24 24 21 20 20 18 17 14 9 5 2 5 8 11 12 12 12 14 16 18 21 22 23 24 23 22 21 23 20 17
26 25 23 22 21 20 18 15 12 8 4 3 6 8 8 9 10 12 13 15 18 21 24 27 25 25 23 21 22 17 16 15
24 22 21 21 19 17 15 11 8 5 4 5 7 7 9 10 11 13 15 20 22 22 24 25 26 24 20 21 19 17 16 14
23 21 20 19 17 15 14 10 7 2 3 5 7 9 12 14 14 15 18 21 25 27 27 27 25 19 22 23 19 15 14 15
20 19 18 17 17 15 12 8 2 1 4 7 9 12 13 11 13 16 20 26 27 29 28 26 21 23 24 20 15 12 15 15
21 18 17 18 17 14 8 4 4 5 9 8 8 10 11 13 18 24 26 24 24 26 23 21 19 25 22 22 18 13 15 15
21 19 20 19 15 10 4 4 7 11 5 6 8 10 15 21 25 23 21 23 26 26 20 20 24 25 27 21 19 17 15 18
23 23 21 16 11 6 3 4 8 6 4 7 9 14 20 24 20 18 21 25 27 24 20 20 20 23 21 23 20 15 17 23
25 23 18 13 10 4 2 7 5 7 6 9 13 18 22 21 19 19 22 27 28 25 21 18 18 20 22 21 13 13 23 24
26 21 16 13 8 3 4 9 9 6 9 12 16 21 21 18 16 19 25 29 28 23 19 18 21 18 18 13 14 21 22 22
25 20 16 12 8 6 10 9 7 10 11 16 20 19 18 18 19 23 27 29 25 21 21 19 23 17 11 15 19 20 20 26
24 20 15 10 8 9 12 11 11 10 15 19 20 19 21 20 21 26 28 25 22 20 20 18 16 16 13 17 15 22 25 31
23 17 14 12 8 11 13 13 10 14 17 21 19 20 20 20 24 26 25 22 21 19 19 19 15 11 10 16 21 25 29 28
23 18 16 9 11 12 13 11 13 16 20 21 20 20 19 21 24 25 22 21 20 19 18 16 13 11 17 20 24 26 25 25
21 18 15 12 13 12 12 12 14 18 21 21 20 19 20 23 25 22 21 21 17 15 16 15 12 17 18 23 24 23 22 23

GFSFLT1_850_spd_024.txt.gz
Wind_Speed
12 12 11 13 14 14 16 19 21 16 10 12 10 4 6 7 4 4 4 6 9 12 12 14 13 10 11 15 19 18 18 21
11 12 13 13 14 15 13 14 14 5 9 10 10 13 9 5 4 3 7 10 12 12 11 11 14 14 20 22 17 17 20 19
10 10 12 12 14 16 12 11 10 13 15 14 11 9 7 6 7 9 9 10 11 12 14 12 17 17 14 15 19 19 19 18
12 13 13 13 15 15 14 15 15 16 14 11 8 8 4 4 4 7 11 11 11 14 17 19 19 17 17 16 15 15 15 16
15 16 16 15 14 15 16 17 16 16 13 9 8 6 5 4 4 4 5 13 14 16 18 20 20 18 16 14 12 13 13 17
17 16 15 15 16 17 17 17 15 15 12 9 7 4 2 1 3 6 8 10 13 14 16 19 18 16 14 11 11 13 14 15
17 16 16 17 16 17 18 16 15 12 10 7 4 2 2 2 4 7 10 12 15 17 19 19 19 17 14 12 14 13 15 14
18 18 17 17 17 16 15 14 13 10 6 3 2 3 5 5 7 9 12 15 18 18 19 19 19 17 15 15 15 17 16 14
20 19 18 17 17 16 14 13 11 8 3 3 7 8 4 6 8 11 13 14 14 17 18 18 17 15 14 18 17 18 15 14
20 19 17 17 17 16 14 12 8 4 5 3 4 6 6 7 11 11 11 12 14 18 19 18 16 17 18 19 19 20 18 15
21 19 18 17 16 15 13 9 4 1 4 5 5 5 8 13 10 10 10 12 16 19 19 18 17 18 21 21 21 20 16 16
21 19 18 18 17 15 12 7 3 0 6 7 5 4 9 11 10 11 11 14 17 19 19 18 17 18 19 20 21 19 15 16
22 21 20 20 19 16 12 9 4 6 9 6 4 10 9 11 12 12 13 15 18 20 18 17 16 17 18 20 16 12 13 16
23 23 23 21 19 17 14 7 6 9 8 7 7 10 12 13 13 13 14 17 19 18 17 17 17 18 19 14 9 10 14 15
25 25 24 22 19 19 13 9 9 12 9 8 11 13 14 14 14 15 15 18 19 17 17 16 15 14 13 10 9 10 11 14
27 26 24 22 20 20 11 13 14 12 11 11 13 14 15 15 14 14 16 18 16 16 16 15 15 12 11 9 8 12 15 17
26 26 24 22 20 18 12 13 14 13 13 12 15 20 15 13 13 15 17 17 16 16 15 15 13 8 15 12 16 16 17 16
27 27 24 21 20 14 12 14 14 15 12 16 17 16 14 13 14 16 17 16 16 15 14 12 11 9 14 18 18 21 16 14
25 23 21 19 16 12 15 14 15 13 16 17 14 12 13 14 15 16 16 16 16 15 14 10 8 11 16 18 21 18 14 14